Regional Weather Roundup
Issued by NWS

Home | Current Version | Previous Version | Graphics & Text | Print | Product List | Glossary On
Versions: 1 2 3 4 5 6 7 8 9 10 11 12 13 14 15 16 17 18 19 20 21 22 23 24 25 26 27 28 29 30 31 32 33 34 35 36 37 38 39 40 41 42 43 44 45 46 47 48 49 50
000
ASUS43 KFSD 261410
RWRSD

WEATHER ROUNDUP FOR SOUTH DAKOTA
NATIONAL WEATHER SERVICE SIOUX FALLS SD
900 AM CDT SUN APR 26 2015

NOTE: "FAIR" INDICATES FEW OR NO CLOUDS BELOW 12,000 FEET WITH NO
SIGNIFICANT WEATHER AND/OR OBSTRUCTIONS TO VISIBILITY.


SDZ001>005-009-010-012>017-261500-
NORTHWEST AND NORTH CENTRAL SOUTH DAKOTA

CITY           SKY/WX    TMP DP  RH WIND       PRES   REMARKS
BUFFALO          N/A     43  40  89 NE14      29.93R
FAITH            N/A     48  43  82 SE13      29.97R
MOBRIDGE       CLOUDY    52  42  69 SE9       30.00R
$$

SDZ012>016-024>037-041>051-057-063-072>074-261500-
SOUTHWEST AND SOUTH CENTRAL SOUTH DAKOTA

CITY           SKY/WX    TMP DP  RH WIND       PRES   REMARKS
RAPID CTY ARPT CLOUDY    43  42  97 N13       29.95R FOG
PIERRE         PTSUNNY   48  42  80 SE12      30.00R
CUSTER         FOG       41  39  93 E10       29.93R VSB 1/4
ELLSWORTH AFB  CLOUDY    43  43 100 N13G18    29.95  FOG
PHILIP         CLOUDY    52  44  74 SE12      29.97R
PINE RIDGE     LGT RAIN  47  43  86 E12       29.93R FOG
SPEARFISH      PTSUNNY   39  39 100 NW6       29.98R FOG
WINNER         PTSUNNY   52  42  69 S9        30.01R
$$

SDZ004>011-016>023-039-040-261500-
NORTHEAST SOUTH DAKOTA

CITY           SKY/WX    TMP DP  RH WIND       PRES   REMARKS
ABERDEEN       MOSUNNY   52  40  63 S7        30.07R
WATERTOWN      SUNNY     47  37  68 SE3       30.06S
BROOKINGS      SUNNY     48  39  71 SE3       30.08R
SISSETON         N/A     45  33  63 S9        30.09R
$$

SDZ017-020-022-023-036>040-048>070-261500-
SOUTHEAST SOUTH DAKOTA

CITY           SKY/WX    TMP DP  RH WIND       PRES   REMARKS
SIOUX FALLS    MOSUNNY   47  39  74 CALM      30.07R
HURON          SUNNY     50  40  68 SE8       30.06R
CHAMBERLAIN    MOSUNNY   47  41  79 SE10      30.03R
MITCHELL       SUNNY     49  42  77 SE10      30.06R
YANKTON        SUNNY     48  37  66 E10       30.06R
$$

ABBREVIATIONS USED IN REMARKS
   TC - TEMPERATURE IN CELSIUS
  WCI - WIND CHILL INDEX
   HX - HEAT INDEX
  VSB - VISIBILITY




USA.gov is the U.S. government's official web portal to all federal, state and local government web resources and services.